Location: Kaarina
(60.4167°N, 22.4167°E)
Time: 15:27:54
(UTC+03:00)

Mayak - Pass Details

Date: 24 August 2019
Orbit: 581 x 603 km, 97.6° (Epoch: 21 September)

Event Time Altitude Azimuth Distance (km) Brightness Sun altitude
Rises 22:39:47 0° 26° (NNE) 2,847 2.6 -10.8°
Reaches altitude 10° 22:43:19 10° 57° (ENE) 1,932 1.3 -11.1°
Maximum altitude 22:45:00 12° 81° (E) 1,791 0.9 -11.2°
Enters shadow 22:46:25 11° 102° (ESE) 1,884 0.9 -11.4°
